Weather History for Toledo, OH

Change the Weather History Date:

Monday, August 19, 2013

  Actual Average Record
Temperature  
Mean Temperature 70 °F 72 °F  
Max Temperature 84 °F 82 °F 97 °F (1955)
Min Temperature 56 °F 61 °F 46 °F (1977)
Degree Days  
Heating Degree Days 0 0  
Month to date heating degree days 16 0  
Since 1 June heating degree days 60 38  
Since 1 July heating degree days 29 3  
Cooling Degree Days 5 7  
Month to date cooling degree days 65 142  
Year to date cooling degree days 566 630  
Since 1 June cooling degree days 472 577  
Growing Degree Days 20 (Base 50)    
Moisture  
Dew Point 58 °F    
Average Humidity 71    
Maximum Humidity 100    
Minimum Humidity 42    
Precipitation  
Precipitation 0.00 in 0.10 in 1.88 in (2007)
Month to date precipitation 1.50 1.97  
Year to date precipitation 26.29 22.14  
Snow  
Snow 0.00 in 0.00 in - ()
Month to date snowfall 0.0 0.0  
Since 1 June snowfall 0.0 0.0  
Since 1 July snowfall 0.0 0.0  
Snow Depth 0.00 in    
Sea Level Pressure  
Sea Level Pressure 30.10 in    
Wind  
Wind Speed 3 mph (WSW)    
Max Wind Speed 13 mph    
Max Gust Speed 16 mph    
Visibility 8 miles    
Events      
T = Trace of Precipitation, MM = Missing Value Source: NWS Daily Summary

Daily Weather History Graph

Daily Weather History Graph

Search for Another Location

Airport:

Trip Planner

Search our weather history database for the weather conditions in past years. The results will help you decide how hot, cold, wet, or windy it might be!

Date:

Astronomy

Aug. 19, 2013 Rise Set
Actual Time 6:48 AM EDT 8:28 PM EDT
Civil Twilight 6:18 AM EDT 8:57 PM EDT
Nautical Twilight 5:43 AM EDT 9:33 PM EDT
Astronomical Twilight 5:04 AM EDT 10:11 PM EDT
Moon 7:18 PM EDT (8/19) 5:05 AM EDT (8/19)
Length of Visible Light 14h 39m
Length of Day
13h 40m
Waxing Gibbous, 97% of the Moon is Illuminated
Aug 19
Waxing Gibbous
Aug 20
Full
Aug 28
Last Quarter
Sep 5
New
Sep 12
First Quarter

Hourly Weather History & Observations

Time (EDT) Temp. Heat Index Dew Point Humidity Pressure Visibility Wind Dir Wind Speed Gust Speed Precip Events Conditions
12:52 AM 61.0 °F - 55.9 °F 83% 30.13 in 10.0 mi West 3.5 mph - N/A   Clear
1:52 AM 59.0 °F - 55.9 °F 90% 30.12 in 10.0 mi Calm Calm - N/A   Clear
2:52 AM 57.0 °F - 55.9 °F 96% 30.12 in 9.0 mi Calm Calm - N/A   Clear
3:52 AM 55.9 °F - 55.9 °F 100% 30.12 in 5.0 mi Calm Calm - N/A   Clear
4:52 AM 55.9 °F - 55.0 °F 97% 30.11 in 4.0 mi Calm Calm - N/A   Clear
5:52 AM 55.9 °F - 55.0 °F 97% 30.12 in 8.0 mi Calm Calm - N/A   Partly Cloudy
6:52 AM 55.9 °F - 55.0 °F 97% 30.13 in 6.0 mi Calm Calm - N/A   Clear
7:14 AM 55.4 °F - 55.4 °F 100% 30.14 in 2.5 mi Calm Calm - N/A   Partly Cloudy
7:29 AM 55.4 °F - 55.4 °F 100% 30.14 in 4.0 mi Calm Calm - N/A   Partly Cloudy
7:52 AM 59.0 °F - 57.9 °F 96% 30.14 in 4.0 mi Calm Calm - N/A   Mostly Cloudy
8:52 AM 64.0 °F - 57.0 °F 78% 30.13 in 9.0 mi Calm Calm - N/A   Clear
9:52 AM 71.1 °F - 57.9 °F 63% 30.13 in 10.0 mi West 5.8 mph - N/A   Clear
10:52 AM 75.0 °F - 59.0 °F 57% 30.13 in 10.0 mi West 5.8 mph - N/A   Clear
11:52 AM 78.1 °F - 57.9 °F 50% 30.12 in 10.0 mi Calm Calm - N/A   Clear
12:52 PM 80.1 °F 80.2 °F 55.9 °F 43% 30.11 in 10.0 mi Calm Calm - N/A   Partly Cloudy
1:52 PM 80.1 °F 80.4 °F 57.0 °F 45% 30.11 in 10.0 mi WNW 5.8 mph - N/A   Mostly Cloudy
2:52 PM 82.9 °F 82.4 °F 57.0 °F 41% 30.09 in 10.0 mi WSW 9.2 mph - N/A   Scattered Clouds
3:52 PM 82.9 °F 82.4 °F 57.0 °F 41% 30.08 in 10.0 mi WSW 4.6 mph - N/A   Scattered Clouds
4:52 PM 82.9 °F 82.4 °F 57.0 °F 41% 30.07 in 10.0 mi SW 6.9 mph - N/A   Scattered Clouds
5:52 PM 82.0 °F 81.7 °F 57.0 °F 42% 30.06 in 10.0 mi SW 8.1 mph - N/A   Clear
6:52 PM 80.1 °F 80.7 °F 59.0 °F 48% 30.05 in 10.0 mi SSW 4.6 mph - N/A   Clear
7:52 PM 75.0 °F - 64.9 °F 71% 30.05 in 10.0 mi South 3.5 mph - N/A   Clear
8:52 PM 69.1 °F - 63.0 °F 81% 30.05 in 9.0 mi Calm Calm - N/A   Clear
9:52 PM 68.0 °F - 62.1 °F 81% 30.07 in 10.0 mi Calm Calm - N/A   Clear
10:52 PM 66.9 °F - 62.1 °F 84% 30.07 in 10.0 mi Calm Calm - N/A   Mostly Cloudy
11:52 PM 68.0 °F - 61.0 °F 78% 30.08 in 10.0 mi WSW 4.6 mph - N/A   Mostly Cloudy